Location: Albany
(35.0170°S, 117.8920°E)
Time: 23:08:48
(UTC+08:00)

S-56A Canister/Altair - Pass Details

Date: 26 June 2021
Orbit: 632 x 2501 km, 38.9° (Epoch: 24 July)

Event Time Altitude Azimuth Distance (km) Brightness Sun altitude
Rises 22:21:40 0° 255° (WSW) 6,015 12.5 -63.5°
Reaches altitude 10° 22:27:50 10° 271° (W) 4,744 11.8 -64.7°
Enters shadow 22:31:53 15° 288° (WNW) 4,099 11.3 -65.4°
